Regional Weather Roundup
Issued by NWS

Home | Current Version | Previous Version | Text Only | Print | Product List | Glossary Off
Versions: 1 2 3 4 5 6 7 8 9 10 11 12 13 14 15 16 17 18 19 20 21 22 23 24 25 26 27 28 29 30 31 32 33 34 35 36 37 38 39 40 41 42 43 44 45 46 47 48 49 50

000
ASUS43 KDMX 292307
RWRIA

WEATHER ROUNDUP FOR IOWA
NATIONAL WEATHER SERVICE DES MOINES IA
600 PM CDT WED JUL 29 2015

NOTE: "FAIR" INDICATES FEW OR NO CLOUDS BELOW 12,000 FEET WITH NO
SIGNIFICANT WEATHER AND/OR OBSTRUCTIONS TO VISIBILITY.

* - THESE STATIONS ARE NOT NWS STATIONS...THUS NOT UNDER NWS
QUALITY CONTROL.  THEY ALSO DO NOT REPORT WEATHER SUCH
AS PRECIPITATION OR FOG.

IAZ001>003-012>014-020>022-031>034-043>046-300000-
   NORTHWEST IOWA

CITY           SKY/WX    TMP DP  RH WIND       PRES   REMARKS
CARROLL *      SUNNY     79  61  53 W9        30.12S HX  80
CHEROKEE *     SUNNY     81  57  44 W8        30.11S HX  81
DENISON *      SUNNY     79  63  57 W8        30.11F HAZE    HX  80
LE MARS *      SUNNY     81  57  44 W9        30.11S HX  81
ORANGE CITY *  SUNNY     81  55  41 W10       30.10F HX  80
SHELDON *      SUNNY     81  55  41 W13G22    30.08S HX  80
SIOUX CITY     SUNNY     84  58  40 W10       30.11S HX  83
SPENCER        SUNNY     83  54  36 W20G25    30.08F HX  82
STORM LAKE *   SUNNY     79  57  47 W12       30.12S HX  80
$$

IAZ055>058-069>071-079>083-090>094-300000-
   SOUTHWEST IOWA

CITY           SKY/WX    TMP DP  RH WIND       PRES   REMARKS
ATLANTIC *     SUNNY     79  61  53 W7        30.14S HX  80
AUDUBON *      SUNNY     81  61  50 W3        30.15S HX  81
CLARINDA *     SUNNY     81  59  47 NW7       30.17S HX  81
COUNCIL BLFS * SUNNY     79  63  57 W5        30.16S HX  80
CRESTON *      SUNNY     79  55  44 NW9       30.15R
HARLAN  *      SUNNY     81  59  47 NW8       30.18R HX  81
LAMONI           N/A     83  60  45 NW3       30.14S HX  83
RED OAK *      MOSUNNY   79  63  57 W3        30.16R HX  80
SHENANDOAH *   SUNNY     82  59  44 CALM      30.16S HX  82
$$

IAZ047>049-059>061-072>074-084-300000-
   CENTRAL IOWA

CITY           SKY/WX    TMP DP  RH WIND       PRES   REMARKS
AMES           SUNNY     81  58  45 NW10      30.09S HX  81
ANKENY *       SUNNY     82  57  42 NW10      30.10S HX  82
CHARITON *     SUNNY     81  61  50 NW6       30.12S HX  81
DES MOINES     MOSUNNY   84  52  33 NW13      30.10S HX  82
GRINNELL*      SUNNY     81  57  44 W10       30.10R HX  81
KNOXVILLE *    SUNNY     81  59  47 NW8       30.09F HX  81
MARSHALLTOWN   SUNNY     80  58  46 W12       30.07F HX  80
PELLA *        SUNNY     82  64  54 NW6       30.11S HX  84
PERRY *          N/A     79  61  53 W7        30.11S HX  80
$$

IAZ004>006-015-016-023>025-035-036-300000-
   NORTH CENTRAL IOWA

CITY           SKY/WX    TMP DP  RH WIND       PRES   REMARKS
ALGONA *       SUNNY     81  57  44 W16       30.08S HX  81
CLARION *      SUNNY     79  59  50 W12G18    30.08S HX  80
ESTHERVILLE    SUNNY     80  56  43 W16G23    30.07S HX  80
FORT DODGE *   SUNNY     81  57  44 W9G16     30.10S HX  81
MASON CITY     SUNNY     81  57  43 W18       30.07R HX  81
FOREST CITY *  SUNNY     79  57  47 W9G20     30.06S HX  80
IOWA FALLS *     N/A     81  55  41 W13       30.09S HX  80
$$

IAZ007>011-017>019-026>030-037>042-050>054-066-300000-
   NORTHEAST IOWA

CITY           SKY/WX    TMP DP  RH WIND       PRES   REMARKS
CEDAR RAPIDS   SUNNY     80  61  52 W13       30.05F HX  81
CHARLES CITY * SUNNY     79  55  44 W14G23    30.05S
CLINTON *      SUNNY     81  61  50 W13       30.05F HX  81
DECORAH *      SUNNY     79  54  41 W8G17     30.01S
DUBUQUE        SUNNY     81  54  39 W14G23    30.03F HX  81
MONTICELLO *   SUNNY     81  57  44 W13G18    30.03F HX  81
OELWEIN *      SUNNY     81  59  47 W13       30.05S HX  81
WATERLOO       SUNNY     82  58  43 W12       30.04S HX  82
$$

IAZ064-065-067-068-078-300000-
   EAST CENTRAL IOWA

CITY           SKY/WX    TMP DP  RH WIND       PRES   REMARKS
DAVENPORT      SUNNY     81  60  48 W9        30.04F HX  82
IOWA CITY      SUNNY     83  58  42 W13       30.06F HX  83
MT. PLEASANT * SUNNY     84  50  30 W9        30.08S HX  82
MUSCATINE *    SUNNY     84  59  42 W9G16     30.05F HX  84
QUAD CITIES    SUNNY     83  57  41 W15       30.03F HX  82
$$

IAZ062-063-075>077-085>089-095>099-300000-
   SOUTHEAST IOWA

CITY           SKY/WX    TMP DP  RH WIND       PRES   REMARKS
BURLINGTON     SUNNY     82  59  45 NW8       30.07F HX  82
FAIRFIELD *    SUNNY     81  61  50 W10       30.08F HX  81
FORT MADISON * SUNNY     81  61  50 NW6       30.08F HX  81
KEOKUK *       SUNNY     82  59  44 NW7       30.07F HX  82
OSKALOOSA *      N/A     81  59  47 NW7       30.10S HX  81
CENTERVILLE *  SUNNY     81  59  47 NW8       30.14S HX  81
OTTUMWA        SUNNY     80  62  54 W10       30.08F HX  81
WASHINGTON *   SUNNY     81  61  50 W9G15     30.08F HX  81
$$

ABBREVIATIONS USED IN REMARKS
   TC - TEMPERATURES IN CELSIUS
  WCI - WIND CHILL INDEX
   HX - HEAT INDEX
  VSB - VISIBILITY
$$



USA.gov is the U.S. government's official web portal to all federal, state and local government web resources and services.